1546599600.19,51099,0.0,0.0,-15.85,-16.59,-16.59,0,*6D
1546599601.47,51100,0.0,0.0,-15.85,-16.59,-16.69,0,*6F
1546599602.71,51101,0.0,0.0,-15.85,-16.59,-16.55,0,*61
1546599603.97,51102,0.0,0.0,-15.85,-16.59,-16.59,0,*6E
1546599605.23,51103,0.0,0.0,-15.83,-16.69,-16.69,0,*69
1546599606.45,51104,0.0,0.0,-15.83,-16.59,-16.59,0,*6E
1546599607.68,51105,0.0,0.0,-15.83,-16.59,-16.59,0,*6F
1546599608.9,51106,0.0,0.0,-15.83,-16.59,-16.59,0,*6C
1546599610.15,51107,0.0,0.0,-15.85,-16.59,-16.59,0,*6B
1546599611.4,51108,0.0,0.0,-15.85,-16.59,-16.59,0,*64
1546599612.66,51109,0.0,0.0,-15.85,-16.59,-16.59,0,*65
1546599613.91,51110,0.0,0.0,-15.85,-16.59,-16.59,0,*6D
1546599615.16,51111,0.0,0.0,-15.85,-16.59,-16.59,0,*6C
1546599616.41,51112,0.0,0.0,-15.85,-16.59,-16.59,0,*6F
1546599617.7,51113,0.0,0.0,-15.89,-16.65,-16.65,0,*62
1546599618.97,51114,0.0,0.0,-15.89,-16.65,-16.59,0,*6A
1546599620.24,51115,0.0,0.0,-15.89,-16.75,-16.65,0,*65
1546599621.49,51116,0.0,0.0,-15.89,-16.75,-16.75,0,*67
1546599622.78,51117,0.0,0.0,-15.89,-16.65,-16.65,0,*66
1546599624.07,51118,0.0,0.0,-15.89,-16.65,-16.65,0,*69
1546599625.31,51119,0.0,0.0,-15.89,-16.75,-16.75,0,*68
1546599626.56,51120,0.0,0.0,-15.89,-16.75,-16.75,0,*62
1546599627.85,51121,0.0,0.0,-15.85,-16.69,-16.69,0,*6F
1546599629.15,51122,0.0,0.0,-15.85,-16.69,-16.69,0,*6C
1546599630.45,51123,0.0,0.0,-15.85,-16.69,-16.69,0,*6D
1546599631.72,51124,0.0,0.0,-15.85,-16.69,-16.59,0,*69
1546599632.98,51125,0.0,0.0,-15.85,-16.59,-16.59,0,*6B
1546599634.25,51126,0.0,0.0,-15.85,-16.69,-16.59,0,*6B
1546599635.53,51127,0.0,0.0,-15.85,-16.69,-16.59,0,*6A
1546599636.8,51128,0.0,0.0,-15.85,-16.59,-16.69,0,*65
1546599638.09,51129,0.0,0.0,-15.89,-16.65,-16.65,0,*6B
1546599639.38,51130,0.0,0.0,-15.89,-16.65,-16.65,0,*63
1546599640.65,51131,0.0,0.0,-15.89,-16.65,-16.75,0,*63
1546599641.92,51132,0.0,0.0,-15.89,-16.65,-16.79,0,*6C
1546599643.19,51133,0.0,0.0,-15.89,-16.65,-16.75,0,*61
1546599644.46,51134,0.0,0.0,-15.89,-16.65,-16.75,0,*66
1546599645.72,51135,0.0,0.0,-15.85,-16.59,-16.59,0,*6A
1546599646.97,51136,0.0,0.0,-15.85,-16.59,-16.59,0,*69
1546599648.22,51137,0.0,0.0,-15.85,-16.59,-16.59,0,*68
1546599649.52,51138,0.0,0.0,-15.85,-16.69,-16.69,0,*67
1546599650.81,51139,0.0,0.0,-15.85,-16.69,-16.69,0,*66
1546599652.09,51140,0.0,0.0,-15.89,-16.65,-16.75,0,*65
1546599653.38,51141,0.0,0.0,-15.89,-16.65,-16.65,0,*65
1546599654.64,51142,0.0,0.0,-15.89,-16.75,-16.65,0,*67
1546599655.89,51143,0.0,0.0,-15.89,-16.75,-16.59,0,*69
1546599657.15,51144,0.0,0.0,-15.89,-16.75,-16.65,0,*61
1546599658.44,51145,0.0,0.0,-15.89,-16.65,-16.65,0,*61
1546599659.73,51146,0.0,0.0,-15.89,-16.65,-16.65,0,*62
1546599661.02,51147,0.0,0.0,-15.89,-16.65,-16.65,0,*63
1546599662.3,51148,0.0,0.0,-15.89,-16.65,-16.75,0,*6D
1546599663.57,51149,0.0,0.0,-15.89,-16.65,-16.59,0,*62
1546599664.81,51150,0.0,0.0,-15.89,-16.75,-16.75,0,*65
1546599666.05,51151,0.0,0.0,-15.89,-16.75,-16.79,0,*68
1546599667.3,51152,0.0,0.0,-15.89,-16.75,-16.59,0,*69
1546599668.56,51153,0.0,0.0,-15.89,-16.75,-16.65,0,*67
1546599669.85,51154,0.0,0.0,-15.89,-16.65,-16.65,0,*61
1546599671.15,51155,0.0,0.0,-15.89,-16.65,-16.65,0,*60
1546599672.41,51156,0.0,0.0,-15.89,-16.75,-16.65,0,*62
1546599673.68,51157,0.0,0.0,-15.91,-16.65,-16.65,0,*6B
1546599674.95,51158,0.0,0.0,-15.89,-16.65,-16.75,0,*6C
1546599676.22,51159,0.0,0.0,-15.89,-16.65,-16.79,0,*61
1546599677.51,51160,0.0,0.0,-15.89,-16.65,-16.65,0,*66
1546599678.8,51161,0.0,0.0,-15.89,-16.65,-16.65,0,*67
1546599680.05,51162,0.0,0.0,-15.91,-16.75,-16.65,0,*6C
1546599681.32,51163,0.0,0.0,-15.91,-16.65,-16.65,0,*6C
1546599682.58,51164,0.0,0.0,-15.89,-16.79,-16.65,0,*6F
1546599683.8,51165,0.0,0.0,-15.91,-16.75,-16.75,0,*6A
1546599685.05,51166,0.0,0.0,-15.89,-16.75,-16.59,0,*6E
1546599686.3,51167,0.0,0.0,-15.91,-16.65,-16.75,0,*69
1546599687.59,51168,0.0,0.0,-15.89,-16.65,-16.65,0,*6E
1546599688.84,51169,0.0,0.0,-15.91,-16.59,-16.65,0,*69
1546599690.11,51170,0.0,0.0,-15.91,-16.65,-16.65,0,*6E
1546599691.35,51171,0.0,0.0,-15.89,-16.75,-16.75,0,*66
1546599692.64,51172,0.0,0.0,-15.89,-16.65,-16.65,0,*65
1546599693.91,51173,0.0,0.0,-15.89,-16.75,-16.65,0,*65
1546599695.18,51174,0.0,0.0,-15.89,-16.65,-16.75,0,*62
1546599696.45,51175,0.0,0.0,-15.89,-16.65,-16.59,0,*6D
1546599697.72,51176,0.0,0.0,-15.89,-16.65,-16.75,0,*60
1546599698.99,51177,0.0,0.0,-15.89,-16.65,-16.75,0,*61
1546599700.26,51178,0.0,0.0,-15.91,-16.65,-16.65,0,*66
1546599701.51,51179,0.0,0.0,-15.91,-16.65,-16.59,0,*68
1546599702.76,51180,0.0,0.0,-15.89,-16.59,-16.75,0,*66
1546599704.03,51181,0.0,0.0,-15.91,-16.65,-16.65,0,*60
1546599705.32,51182,0.0,0.0,-15.89,-16.65,-16.65,0,*6A
1546599706.59,51183,0.0,0.0,-15.91,-16.65,-16.65,0,*62
1546599707.83,51184,0.0,0.0,-15.89,-16.59,-16.75,0,*62
1546599709.08,51185,0.0,0.0,-15.91,-16.65,-16.75,0,*65
1546599710.33,51186,0.0,0.0,-15.89,-16.79,-16.59,0,*6C
1546599711.62,51187,0.0,0.0,-15.89,-16.65,-16.65,0,*6F
1546599712.86,51188,0.0,0.0,-15.89,-16.59,-16.75,0,*6E
1546599714.13,51189,0.0,0.0,-15.89,-16.65,-16.75,0,*60
1546599715.39,51190,0.0,0.0,-15.91,-16.65,-16.75,0,*61
1546599716.63,51191,0.0,0.0,-15.91,-16.59,-16.65,0,*6E
1546599717.87,51192,0.0,0.0,-15.91,-16.75,-16.65,0,*63
1546599719.16,51193,0.0,0.0,-15.89,-16.65,-16.65,0,*6A
1546599720.44,51194,0.0,0.0,-15.89,-16.65,-16.75,0,*6C
1546599721.68,51195,0.0,0.0,-15.89,-16.75,-16.75,0,*6C
1546599722.97,51196,0.0,0.0,-15.89,-16.65,-16.65,0,*6F
1546599724.24,51197,0.0,0.0,-15.91,-16.65,-16.65,0,*67
1546599725.53,51198,0.0,0.0,-15.89,-16.65,-16.65,0,*61
1546599726.8,51199,0.0,0.0,-15.91,-16.65,-16.65,0,*69
1546599728.09,51200,0.0,0.0,-15.89,-16.65,-16.65,0,*63
1546599729.34,51201,0.0,0.0,-15.91,-16.59,-16.65,0,*64
1546599730.58,51202,0.0,0.0,-15.89,-16.75,-16.75,0,*61
1546599731.85,51203,0.0,0.0,-15.89,-16.65,-16.75,0,*61
1546599733.13,51204,0.0,0.0,-15.91,-16.65,-16.65,0,*6E
1546599734.4,51205,0.0,0.0,-15.89,-16.65,-16.75,0,*67
1546599735.67,51206,0.0,0.0,-15.89,-16.65,-16.75,0,*64
1546599736.91,51207,0.0,0.0,-15.89,-16.59,-16.75,0,*6A
1546599738.18,51208,0.0,0.0,-15.91,-16.65,-16.65,0,*62
1546599739.43,51209,0.0,0.0,-15.91,-16.75,-16.65,0,*62
1546599740.65,51210,0.0,0.0,-15.91,-16.75,-16.59,0,*65
1546599741.92,51211,0.0,0.0,-15.91,-16.65,-16.65,0,*6A
1546599743.21,51212,0.0,0.0,-15.89,-16.65,-16.65,0,*60
1546599744.48,51213,0.0,0.0,-15.91,-16.65,-16.65,0,*68
1546599745.75,51214,0.0,0.0,-15.91,-16.65,-16.65,0,*6F
1546599746.98,51215,0.0,0.0,-15.91,-16.59,-16.59,0,*6E
1546599748.23,51216,0.0,0.0,-15.91,-16.65,-16.75,0,*6C
1546599749.48,51217,0.0,0.0,-15.91,-16.65,-16.75,0,*6D
1546599750.75,51218,0.0,0.0,-15.89,-16.65,-16.75,0,*6B
1546599751.99,51219,0.0,0.0,-15.91,-16.75,-16.65,0,*63
1546599753.26,51220,0.0,0.0,-15.91,-16.65,-16.65,0,*68
1546599754.53,51221,0.0,0.0,-15.91,-16.65,-16.65,0,*69
1546599755.76,51222,0.0,0.0,-15.91,-16.75,-16.59,0,*64
1546599756.98,51223,0.0,0.0,-15.91,-16.75,-16.75,0,*6B
1546599758.23,51224,0.0,0.0,-15.91,-16.65,-16.75,0,*6D
1546599759.48,51225,0.0,0.0,-15.91,-16.65,-16.75,0,*6C
1546599760.73,51226,0.0,0.0,-15.91,-16.75,-16.65,0,*6F
1546599761.95,51227,0.0,0.0,-15.91,-16.75,-16.75,0,*6F
1546599763.24,51228,0.0,0.0,-15.89,-16.65,-16.65,0,*69
1546599764.52,51229,0.0,0.0,-15.89,-16.65,-16.75,0,*69
1546599765.77,51230,0.0,0.0,-15.91,-16.65,-16.75,0,*68
1546599767.02,51231,0.0,0.0,-15.91,-16.65,-16.59,0,*67
1546599768.31,51232,0.0,0.0,-15.89,-16.65,-16.65,0,*62
1546599769.53,51233,0.0,0.0,-15.91,-16.75,-16.75,0,*6A
1546599770.78,51234,0.0,0.0,-15.91,-16.75,-16.65,0,*6C
1546599772.05,51235,0.0,0.0,-15.89,-16.65,-16.75,0,*64
1546599773.32,51236,0.0,0.0,-15.91,-16.65,-16.65,0,*6F
1546599774.58,51237,0.0,0.0,-15.89,-16.75,-16.65,0,*66
1546599775.81,51238,0.0,0.0,-15.91,-16.75,-16.75,0,*61
1546599777.05,51239,0.0,0.0,-15.91,-16.75,-16.65,0,*61
1546599778.3,51240,0.0,0.0,-15.91,-16.75,-16.65,0,*6F
1546599779.55,51241,0.0,0.0,-15.91,-16.65,-16.75,0,*6E
1546599780.82,51242,0.0,0.0,-15.91,-16.65,-16.65,0,*6C
1546599782.09,51243,0.0,0.0,-15.91,-16.65,-16.65,0,*6D
1546599783.33,51244,0.0,0.0,-15.91,-16.75,-16.65,0,*6B
1546599784.6,51245,0.0,0.0,-15.91,-16.65,-16.65,0,*6B
1546599785.85,51246,0.0,0.0,-15.91,-16.65,-16.59,0,*67
1546599787.12,51247,0.0,0.0,-15.91,-16.65,-16.65,0,*69
1546599788.37,51248,0.0,0.0,-15.91,-16.65,-16.75,0,*67
1546599789.62,51249,0.0,0.0,-15.91,-16.65,-16.75,0,*66
1546599790.87,51250,0.0,0.0,-15.91,-16.65,-16.75,0,*6E
1546599792.14,51251,0.0,0.0,-15.91,-16.65,-16.65,0,*6E
1546599793.41,51252,0.0,0.0,-15.89,-16.75,-16.65,0,*65
1546599794.68,51253,0.0,0.0,-15.91,-16.65,-16.65,0,*6C
1546599795.9,51254,0.0,0.0,-15.91,-16.75,-16.75,0,*6B
1546599797.15,51255,0.0,0.0,-15.91,-16.75,-16.65,0,*6B
1546599798.42,51256,0.0,0.0,-15.91,-16.65,-16.65,0,*69
1546599799.66,51257,0.0,0.0,-15.91,-16.75,-16.65,0,*69
1546599800.91,51258,0.0,0.0,-15.91,-16.75,-16.65,0,*66
1546599802.16,51259,0.0,0.0,-15.91,-16.65,-16.59,0,*69
1546599803.41,51260,0.0,0.0,-15.91,-16.65,-16.59,0,*63
1546599804.7,51261,0.0,0.0,-15.93,-16.69,-16.69,0,*6F
1546599805.95,51262,0.0,0.0,-15.91,-16.65,-16.75,0,*6F
1546599807.2,51263,0.0,0.0,-15.91,-16.75,-16.65,0,*6E
1546599808.42,51264,0.0,0.0,-15.91,-16.79,-16.59,0,*6A
1546599809.69,51265,0.0,0.0,-15.93,-16.79,-16.69,0,*6A
1546599810.96,51266,0.0,0.0,-15.93,-16.79,-16.69,0,*69
1546599812.21,51267,0.0,0.0,-15.93,-16.79,-16.79,0,*69
1546599813.43,51268,0.0,0.0,-15.91,-16.75,-16.75,0,*64
1546599814.66,51269,0.0,0.0,-15.91,-16.75,-16.75,0,*65
1546599815.88,51270,0.0,0.0,-15.91,-16.75,-16.75,0,*6D
1546599817.11,51271,0.0,0.0,-15.91,-16.75,-16.75,0,*6C
1546599818.33,51272,0.0,0.0,-15.91,-16.75,-16.75,0,*6F
1546599819.56,51273,0.0,0.0,-15.91,-16.75,-16.75,0,*6E
1546599820.83,51274,0.0,0.0,-15.91,-16.65,-16.65,0,*69
1546599822.08,51275,0.0,0.0,-15.91,-16.65,-16.75,0,*69
1546599823.32,51276,0.0,0.0,-15.91,-16.65,-16.79,0,*66
1546599824.57,51277,0.0,0.0,-15.91,-16.65,-16.75,0,*6B
1546599825.82,51278,0.0,0.0,-15.91,-16.65,-16.75,0,*64
1546599827.1,51279,0.0,0.0,-15.93,-16.69,-16.79,0,*67
1546599828.39,51280,0.0,0.0,-15.93,-16.69,-16.69,0,*60
1546599829.69,51281,0.0,0.0,-15.93,-16.69,-16.69,0,*61
1546599830.96,51282,0.0,0.0,-15.93,-16.83,-16.69,0,*66
1546599832.25,51283,0.0,0.0,-15.93,-16.69,-16.69,0,*63
1546599833.55,51284,0.0,0.0,-15.93,-16.69,-16.69,0,*64
1546599834.82,51285,0.0,0.0,-15.93,-16.79,-16.69,0,*64
1546599836.09,51286,0.0,0.0,-15.93,-16.79,-16.69,0,*67
1546599837.34,51287,0.0,0.0,-15.93,-16.83,-16.83,0,*67
1546599838.58,51288,0.0,0.0,-15.93,-16.79,-16.79,0,*68
1546599839.85,51289,0.0,0.0,-15.93,-16.69,-16.79,0,*68
1546599841.15,51290,0.0,0.0,-15.93,-16.69,-16.69,0,*61
1546599842.44,51291,0.0,0.0,-15.93,-16.69,-16.69,0,*60
1546599843.71,51292,0.0,0.0,-15.93,-16.83,-16.69,0,*67
1546599844.98,51293,0.0,0.0,-15.93,-16.79,-16.69,0,*63
1546599846.23,51294,0.0,0.0,-15.93,-16.79,-16.79,0,*65
1546599847.5,51295,0.0,0.0,-15.93,-16.79,-16.65,0,*69
1546599848.77,51296,0.0,0.0,-15.93,-16.79,-16.69,0,*66
1546599850.04,51297,0.0,0.0,-15.93,-16.69,-16.79,0,*67
1546599851.29,51298,0.0,0.0,-15.91,-16.65,-16.59,0,*64
1546599852.56,51299,0.0,0.0,-15.93,-16.83,-16.69,0,*6C
1546599853.83,51300,0.0,0.0,-15.93,-16.79,-16.69,0,*68
1546599855.1,51301,0.0,0.0,-15.93,-16.69,-16.79,0,*69
1546599856.38,51302,0.0,0.0,-15.93,-16.79,-16.69,0,*6A
1546599857.65,51303,0.0,0.0,-15.93,-16.65,-16.79,0,*67
1546599858.87,51304,0.0,0.0,-15.91,-16.75,-16.75,0,*6F
1546599860.12,51305,0.0,0.0,-15.95,-16.69,-16.79,0,*6B
1546599861.39,51306,0.0,0.0,-15.93,-16.79,-16.69,0,*6E
1546599862.68,51307,0.0,0.0,-15.93,-16.69,-16.69,0,*6E
1546599863.98,51308,0.0,0.0,-15.93,-16.69,-16.69,0,*61
1546599865.27,51309,0.0,0.0,-15.93,-16.69,-16.69,0,*60
1546599866.57,51310,0.0,0.0,-15.93,-16.69,-16.69,0,*68
1546599867.86,51311,0.0,0.0,-15.93,-16.69,-16.69,0,*69
1546599869.11,51312,0.0,0.0,-15.95,-16.69,-16.79,0,*6D
1546599870.38,51313,0.0,0.0,-15.93,-16.79,-16.69,0,*6A
1546599871.65,51314,0.0,0.0,-15.93,-16.69,-16.83,0,*68
1546599872.87,51315,0.0,0.0,-15.95,-16.79,-16.79,0,*6B
1546599874.17,51316,0.0,0.0,-15.93,-16.69,-16.69,0,*6E
1546599875.44,51317,0.0,0.0,-15.93,-16.79,-16.69,0,*6E
1546599876.71,51318,0.0,0.0,-15.93,-16.69,-16.79,0,*61
1546599877.98,51319,0.0,0.0,-15.93,-16.65,-16.79,0,*6C
1546599879.2,51320,0.0,0.0,-15.95,-16.79,-16.83,0,*68
1546599880.47,51321,0.0,0.0,-15.93,-16.69,-16.79,0,*6B
1546599881.72,51322,0.0,0.0,-15.95,-16.79,-16.69,0,*6E
1546599882.99,51323,0.0,0.0,-15.93,-16.79,-16.69,0,*69
1546599884.26,51324,0.0,0.0,-15.93,-16.69,-16.79,0,*6E
1546599885.53,51325,0.0,0.0,-15.93,-16.69,-16.79,0,*6F
1546599886.8,51326,0.0,0.0,-15.93,-16.69,-16.79,0,*6C
1546599888.05,51327,0.0,0.0,-15.91,-16.75,-16.65,0,*6F
1546599889.34,51328,0.0,0.0,-15.93,-16.69,-16.69,0,*63
1546599890.61,51329,0.0,0.0,-15.93,-16.69,-16.79,0,*63
1546599891.86,51330,0.0,0.0,-15.95,-16.79,-16.69,0,*6D
1546599893.13,51331,0.0,0.0,-15.93,-16.79,-16.69,0,*6A
1546599894.4,51332,0.0,0.0,-15.95,-16.69,-16.69,0,*6E
1546599895.67,51333,0.0,0.0,-15.93,-16.69,-16.79,0,*68
1546599896.89,51334,0.0,0.0,-15.95,-16.79,-16.79,0,*68
1546599898.14,51335,0.0,0.0,-15.93,-16.79,-16.79,0,*6F
1546599899.41,51336,0.0,0.0,-15.93,-16.79,-16.69,0,*6D
1546599900.68,51337,0.0,0.0,-15.93,-16.79,-16.69,0,*6C
1546599901.97,51338,0.0,0.0,-15.93,-16.69,-16.69,0,*62
1546599903.27,51339,0.0,0.0,-15.93,-16.69,-16.69,0,*63
1546599904.51,51340,0.0,0.0,-15.95,-16.83,-16.69,0,*6F
1546599905.76,51341,0.0,0.0,-15.95,-16.69,-16.79,0,*6B
1546599907.03,51342,0.0,0.0,-15.95,-16.69,-16.69,0,*69
1546599908.32,51343,0.0,0.0,-15.93,-16.65,-16.69,0,*62
1546599909.57,51344,0.0,0.0,-15.95,-16.79,-16.65,0,*62
1546599910.81,51345,0.0,0.0,-15.93,-16.79,-16.83,0,*6D
1546599912.06,51346,0.0,0.0,-15.93,-16.79,-16.79,0,*6B
1546599913.31,51347,0.0,0.0,-15.93,-16.79,-16.79,0,*6A
1546599914.55,51348,0.0,0.0,-15.91,-16.75,-16.65,0,*66
1546599915.82,51349,0.0,0.0,-15.93,-16.79,-16.65,0,*69
1546599917.09,51350,0.0,0.0,-15.93,-16.79,-16.69,0,*6D
1546599918.36,51351,0.0,0.0,-15.93,-16.79,-16.69,0,*6C
1546599919.61,51352,0.0,0.0,-15.93,-16.79,-16.79,0,*6E
1546599920.88,51353,0.0,0.0,-15.95,-16.69,-16.69,0,*69
1546599922.15,51354,0.0,0.0,-15.95,-16.69,-16.69,0,*6E
1546599923.42,51355,0.0,0.0,-15.93,-16.69,-16.79,0,*68
1546599924.71,51356,0.0,0.0,-15.93,-16.69,-16.69,0,*6A
1546599926.01,51357,0.0,0.0,-15.93,-16.69,-16.69,0,*6B
1546599927.25,51358,0.0,0.0,-15.95,-16.79,-16.65,0,*6F
1546599928.55,51359,0.0,0.0,-15.93,-16.69,-16.69,0,*65
1546599929.84,51360,0.0,0.0,-15.93,-16.65,-16.69,0,*63
1546599931.11,51361,0.0,0.0,-15.95,-16.69,-16.69,0,*68
1546599932.36,51362,0.0,0.0,-15.95,-16.79,-16.69,0,*6A
1546599933.58,51363,0.0,0.0,-15.95,-16.79,-16.79,0,*6A
1546599934.83,51364,0.0,0.0,-15.93,-16.79,-16.79,0,*6B
1546599936.1,51365,0.0,0.0,-15.93,-16.69,-16.79,0,*6B
1546599937.34,51366,0.0,0.0,-15.95,-16.69,-16.79,0,*6E
1546599938.61,51367,0.0,0.0,-15.95,-16.69,-16.69,0,*6E
1546599939.86,51368,0.0,0.0,-15.95,-16.69,-16.79,0,*60
1546599941.1,51369,0.0,0.0,-15.95,-16.79,-16.69,0,*61
1546599942.37,51370,0.0,0.0,-15.95,-16.69,-16.69,0,*68
1546599943.64,51371,0.0,0.0,-15.95,-16.69,-16.69,0,*69
1546599944.94,51372,0.0,0.0,-15.93,-16.65,-16.69,0,*60
1546599946.16,51373,0.0,0.0,-15.95,-16.79,-16.79,0,*6B
1546599947.38,51374,0.0,0.0,-15.95,-16.79,-16.79,0,*6C
1546599948.65,51375,0.0,0.0,-15.93,-16.79,-16.69,0,*6A
1546599949.89,51376,0.0,0.0,-15.95,-16.79,-16.69,0,*6F
1546599951.14,51377,0.0,0.0,-15.95,-16.79,-16.69,0,*6E
1546599952.41,51378,0.0,0.0,-15.95,-16.69,-16.69,0,*60
1546599953.65,51379,0.0,0.0,-15.95,-16.69,-16.79,0,*60
1546599954.92,51380,0.0,0.0,-15.91,-16.65,-16.65,0,*63
1546599956.14,51381,0.0,0.0,-15.95,-16.79,-16.79,0,*66
1546599957.41,51382,0.0,0.0,-15.93,-16.69,-16.79,0,*62
1546599958.66,51383,0.0,0.0,-15.95,-16.69,-16.79,0,*65
1546599959.93,51384,0.0,0.0,-15.93,-16.69,-16.79,0,*64
1546599961.2,51385,0.0,0.0,-15.95,-16.69,-16.69,0,*62
1546599962.47,51386,0.0,0.0,-15.95,-16.69,-16.69,0,*61
1546599963.69,51387,0.0,0.0,-15.95,-16.79,-16.79,0,*60
1546599964.94,51388,0.0,0.0,-15.93,-16.79,-16.79,0,*69
1546599966.18,51389,0.0,0.0,-15.95,-16.79,-16.69,0,*6F
1546599967.45,51390,0.0,0.0,-15.93,-16.79,-16.69,0,*61
1546599968.72,51391,0.0,0.0,-15.95,-16.69,-16.69,0,*67
1546599969.97,51392,0.0,0.0,-15.97,-16.83,-16.75,0,*6F
1546599971.24,51393,0.0,0.0,-15.95,-16.69,-16.69,0,*65
1546599972.48,51394,0.0,0.0,-15.95,-16.69,-16.79,0,*63
1546599973.75,51395,0.0,0.0,-15.95,-16.69,-16.69,0,*63
1546599975.02,51396,0.0,0.0,-15.95,-16.69,-16.69,0,*60
1546599976.26,51397,0.0,0.0,-15.95,-16.79,-16.69,0,*60
1546599977.53,51398,0.0,0.0,-15.95,-16.69,-16.69,0,*6E
1546599978.78,51399,0.0,0.0,-15.95,-16.79,-16.69,0,*6E
1546599980.0,51400,0.0,0.0,-15.95,-16.79,-16.79,0,*68
1546599981.27,51401,0.0,0.0,-15.95,-16.69,-16.69,0,*69
1546599982.54,51402,0.0,0.0,-15.93,-16.69,-16.79,0,*6D
1546599983.79,51403,0.0,0.0,-15.93,-16.79,-16.79,0,*6D
1546599985.05,51404,0.0,0.0,-15.95,-16.69,-16.69,0,*6C
1546599986.3,51405,0.0,0.0,-15.95,-16.79,-16.65,0,*60
1546599987.55,51406,0.0,0.0,-15.97,-16.83,-16.75,0,*65
1546599988.79,51407,0.0,0.0,-15.95,-16.79,-16.69,0,*6E
1546599990.06,51408,0.0,0.0,-15.95,-16.69,-16.65,0,*6C
1546599991.3,51409,0.0,0.0,-15.95,-16.83,-16.69,0,*65
1546599992.55,51410,0.0,0.0,-15.95,-16.69,-16.79,0,*68
1546599993.84,51411,0.0,0.0,-15.93,-16.69,-16.65,0,*62
1546599995.11,51412,0.0,0.0,-15.95,-16.69,-16.69,0,*6B
1546599996.38,51413,0.0,0.0,-15.95,-16.69,-16.69,0,*6A
1546599997.63,51414,0.0,0.0,-15.95,-16.69,-16.79,0,*6C
1546599998.85,51415,0.0,0.0,-15.95,-16.79,-16.79,0,*6C
1546600000.09,51416,0.0,0.0,-15.95,-16.69,-16.79,0,*6E
1546600001.36,51417,0.0,0.0,-15.95,-16.69,-16.69,0,*6E
1546600002.61,51418,0.0,0.0,-15.95,-16.79,-16.65,0,*6C
1546600003.85,51419,0.0,0.0,-15.95,-16.79,-16.69,0,*61
1546600005.09,51420,0.0,0.0,-15.95,-16.79,-16.69,0,*6B
1546600006.34,51421,0.0,0.0,-15.95,-16.79,-16.69,0,*6A
1546600007.58,51422,0.0,0.0,-15.97,-16.83,-16.83,0,*6A
1546600008.81,51423,0.0,0.0,-15.95,-16.79,-16.79,0,*69
1546600010.03,51424,0.0,0.0,-15.95,-16.79,-16.79,0,*6E
1546600011.27,51425,0.0,0.0,-15.95,-16.69,-16.83,0,*6B
1546600012.54,51426,0.0,0.0,-15.95,-16.69,-16.69,0,*6C
1546600013.81,51427,0.0,0.0,-15.95,-16.69,-16.69,0,*6D
1546600015.08,51428,0.0,0.0,-15.95,-16.69,-16.69,0,*62
1546600016.35,51429,0.0,0.0,-15.95,-16.69,-16.69,0,*63
1546600017.62,51430,0.0,0.0,-15.95,-16.69,-16.69,0,*6B
1546600018.89,51431,0.0,0.0,-15.95,-16.69,-16.69,0,*6A
1546600020.13,51432,0.0,0.0,-15.97,-16.75,-16.75,0,*6B
1546600021.38,51433,0.0,0.0,-15.97,-16.83,-16.83,0,*6A
1546600022.62,51434,0.0,0.0,-15.97,-16.75,-16.83,0,*64
1546600023.89,51435,0.0,0.0,-15.97,-16.75,-16.69,0,*61
1546600025.14,51436,0.0,0.0,-15.97,-16.75,-16.75,0,*6F
1546600026.39,51437,0.0,0.0,-15.97,-16.75,-16.75,0,*6E
1546600027.64,51438,0.0,0.0,-15.97,-16.83,-16.83,0,*61
1546600028.88,51439,0.0,0.0,-15.97,-16.75,-16.89,0,*63
1546600030.1,51440,0.0,0.0,-15.95,-16.75,-16.83,0,*65
1546600031.37,51441,0.0,0.0,-15.95,-16.69,-16.69,0,*6D
1546600032.59,51442,0.0,0.0,-15.95,-16.79,-16.79,0,*6E
1546600033.86,51443,0.0,0.0,-15.93,-16.79,-16.69,0,*68
1546600035.13,51444,0.0,0.0,-15.95,-16.69,-16.69,0,*68
1546600036.37,51445,0.0,0.0,-15.95,-16.79,-16.69,0,*68
1546600037.64,51446,0.0,0.0,-15.95,-16.69,-16.69,0,*6A
1546600038.89,51447,0.0,0.0,-15.97,-16.75,-16.75,0,*69
1546600040.14,51448,0.0,0.0,-15.97,-16.83,-16.75,0,*6F
1546600041.4,51449,0.0,0.0,-15.97,-16.83,-16.69,0,*63
1546600042.65,51450,0.0,0.0,-15.97,-16.83,-16.75,0,*66
1546600043.9,51451,0.0,0.0,-15.97,-16.89,-16.75,0,*6D
1546600045.15,51452,0.0,0.0,-15.97,-16.75,-16.75,0,*6D
1546600046.39,51453,0.0,0.0,-15.97,-16.83,-16.83,0,*6C
1546600047.64,51454,0.0,0.0,-15.95,-16.69,-16.79,0,*68
1546600048.88,51455,0.0,0.0,-15.95,-16.69,-16.79,0,*69
1546600050.13,51456,0.0,0.0,-15.97,-16.83,-16.83,0,*69
1546600051.37,51457,0.0,0.0,-15.97,-16.83,-16.83,0,*68
1546600052.62,51458,0.0,0.0,-15.97,-16.83,-16.75,0,*6E
1546600053.87,51459,0.0,0.0,-15.97,-16.83,-16.75,0,*6F
1546600055.11,51460,0.0,0.0,-15.97,-16.89,-16.83,0,*66
1546600056.36,51461,0.0,0.0,-15.97,-16.75,-16.83,0,*64
1546600057.61,51462,0.0,0.0,-15.97,-16.83,-16.75,0,*67
1546600058.85,51463,0.0,0.0,-15.97,-16.75,-16.83,0,*66
1546600060.12,51464,0.0,0.0,-15.97,-16.69,-16.83,0,*6C
1546600061.39,51465,0.0,0.0,-15.95,-16.69,-16.69,0,*6B
1546600062.63,51466,0.0,0.0,-15.95,-16.83,-16.69,0,*6C
1546600063.88,51467,0.0,0.0,-15.97,-16.75,-16.75,0,*6B
1546600065.13,51468,0.0,0.0,-15.97,-16.75,-16.75,0,*64
1546600066.36,51469,0.0,0.0,-15.99,-16.75,-16.75,0,*6B
1546600067.6,51470,0.0,0.0,-15.97,-16.75,-16.75,0,*6D
1546600068.88,51471,0.0,0.0,-15.97,-16.69,-16.75,0,*61
1546600070.12,51472,0.0,0.0,-15.97,-16.75,-16.83,0,*66
1546600071.37,51473,0.0,0.0,-15.97,-16.75,-16.83,0,*67
1546600072.64,51474,0.0,0.0,-15.97,-16.69,-16.75,0,*64
1546600073.91,51475,0.0,0.0,-15.97,-16.69,-16.75,0,*65
1546600075.14,51476,0.0,0.0,-15.99,-16.83,-16.75,0,*6C
1546600076.36,51477,0.0,0.0,-15.99,-16.83,-16.75,0,*6D
1546600077.58,51478,0.0,0.0,-15.95,-16.79,-16.79,0,*67
1546600078.8,51479,0.0,0.0,-15.99,-16.75,-16.83,0,*63
1546600080.05,51480,0.0,0.0,-15.95,-16.69,-16.79,0,*61
1546600081.27,51481,0.0,0.0,-15.99,-16.83,-16.83,0,*6D
1546600082.52,51482,0.0,0.0,-15.97,-16.83,-16.75,0,*69
1546600083.77,51483,0.0,0.0,-15.97,-16.83,-16.75,0,*68
1546600085.02,51484,0.0,0.0,-15.97,-16.83,-16.75,0,*6F
1546600086.26,51485,0.0,0.0,-15.95,-16.79,-16.69,0,*64
1546600087.51,51486,0.0,0.0,-15.97,-16.83,-16.75,0,*6D
1546600088.75,51487,0.0,0.0,-15.97,-16.75,-16.83,0,*6C
1546600090.0,51488,0.0,0.0,-15.97,-16.75,-16.83,0,*63
1546600091.24,51489,0.0,0.0,-15.97,-16.75,-16.83,0,*62
1546600092.49,51490,0.0,0.0,-15.97,-16.83,-16.83,0,*63
1546600093.74,51491,0.0,0.0,-15.97,-16.75,-16.75,0,*62
1546600094.99,51492,0.0,0.0,-15.97,-16.75,-16.75,0,*61
1546600096.25,51493,0.0,0.0,-15.97,-16.75,-16.69,0,*6D
1546600097.5,51494,0.0,0.0,-15.97,-16.75,-16.83,0,*6E
1546600098.75,51495,0.0,0.0,-15.97,-16.75,-16.75,0,*66
1546600099.99,51496,0.0,0.0,-15.99,-16.75,-16.69,0,*66
1546600101.24,51497,0.0,0.0,-15.97,-16.75,-16.75,0,*64
1546600102.49,51498,0.0,0.0,-15.97,-16.75,-16.75,0,*6B
1546600103.71,51499,0.0,0.0,-15.99,-16.83,-16.75,0,*6D
1546600104.96,51500,0.0,0.0,-15.97,-16.83,-16.75,0,*62
1546600106.21,51501,0.0,0.0,-15.97,-16.83,-16.75,0,*63
1546600107.46,51502,0.0,0.0,-15.97,-16.83,-16.75,0,*60
1546600108.71,51503,0.0,0.0,-15.97,-16.83,-16.83,0,*68
1546600109.95,51504,0.0,0.0,-15.97,-16.83,-16.83,0,*6F
1546600111.19,51505,0.0,0.0,-15.97,-16.75,-16.83,0,*67
1546600112.47,51506,0.0,0.0,-15.97,-16.69,-16.75,0,*60
1546600113.72,51507,0.0,0.0,-15.97,-16.83,-16.75,0,*65
1546600114.96,51508,0.0,0.0,-15.97,-16.75,-16.83,0,*6A
1546600116.18,51509,0.0,0.0,-15.99,-16.83,-16.83,0,*6C
1546600117.43,51510,0.0,0.0,-15.97,-16.75,-16.75,0,*6A
1546600118.65,51511,0.0,0.0,-15.99,-16.75,-16.83,0,*6C
1546600119.88,51512,0.0,0.0,-15.99,-16.83,-16.75,0,*6F
1546600121.12,51513,0.0,0.0,-15.97,-16.83,-16.83,0,*69
1546600122.34,51514,0.0,0.0,-15.99,-16.75,-16.89,0,*63
1546600123.58,51515,0.0,0.0,-15.97,-16.83,-16.83,0,*6F
1546600124.83,51516,0.0,0.0,-15.97,-16.83,-16.83,0,*6C
1546600126.05,51517,0.0,0.0,-15.99,-16.75,-16.75,0,*63
1546600127.3,51518,0.0,0.0,-15.95,-16.69,-16.79,0,*61
1546600128.57,51519,0.0,0.0,-15.95,-16.65,-16.69,0,*6D
1546600129.82,51520,0.0,0.0,-15.97,-16.75,-16.75,0,*69
1546600131.09,51521,0.0,0.0,-15.97,-16.75,-16.69,0,*65
1546600132.34,51522,0.0,0.0,-15.97,-16.75,-16.75,0,*6B
1546600133.58,51523,0.0,0.0,-15.97,-16.75,-16.83,0,*63
1546600134.85,51524,0.0,0.0,-15.97,-16.89,-16.69,0,*63
1546600136.09,51525,0.0,0.0,-15.99,-16.83,-16.69,0,*66
1546600137.34,51526,0.0,0.0,-15.97,-16.83,-16.83,0,*6F
1546600138.61,51527,0.0,0.0,-15.97,-16.83,-16.69,0,*6A
1546600139.85,51528,0.0,0.0,-15.97,-16.83,-16.83,0,*61
1546600141.1,51529,0.0,0.0,-15.99,-16.75,-16.69,0,*63
1546600142.34,51530,0.0,0.0,-15.97,-16.75,-16.75,0,*68
1546600143.59,51531,0.0,0.0,-15.97,-16.75,-16.83,0,*60
1546600144.81,51532,0.0,0.0,-15.99,-16.83,-16.75,0,*6D
1546600146.04,51533,0.0,0.0,-15.99,-16.83,-16.75,0,*6C
1546600147.29,51534,0.0,0.0,-15.97,-16.75,-16.83,0,*65
1546600148.53,51535,0.0,0.0,-15.97,-16.75,-16.75,0,*6D